Hourly Data Report for October 30, 2015

All times are specified in Local Standard Time (LST). Add 1 hour to adjust for Daylight Saving Time where and when it is observed.

WINNIPEG A CS
MANITOBA

49°55'00.000" N
97°14'58.000" W
238.70 m
502S001
71849
XWG

Download Data

Hourly Data (October 2015)
Hourly Data Report for October 30, 2015
Temp Definition
°C
Dew Point Temp Definition
°C
Rel Hum Definition
%
Wind Dir Definition
10's deg

Wind Spd Definition
km/h
Visibility Definition
km
Stn Press Definition
kPa
Hmdx Definition


Wind Chill Definition


Weather Definition


TIME
00:00 2.6 0.6 87 18 16   98.26     LegendNANA
01:00 2.6 1.0 89 18 14   98.22     LegendNANA
02:00 2.9 0.3 83 21 21   98.17     LegendNANA
03:00 2.5 0.0 84 22 20   98.12     LegendNANA
04:00 2.0 -0.2 85 19 21   98.02     LegendNANA
05:00 1.0 -0.6 89 18 21   97.93     LegendNANA
06:00 0.6 -0.8 91 18 29   97.84     LegendNANA
07:00 1.0 -0.3 91 19 31   97.74     LegendNANA
08:00 1.4 0.0 90 19 31   97.68     LegendNANA
09:00 2.4 0.6 87 19 33   97.63     LegendNANA
10:00 3.6 1.2 85 19 35   97.54     LegendNANA
11:00 5.6 2.0 77 21 35   97.54     LegendNANA
12:00 6.2 2.8 79 21 30   97.46     LegendNANA
13:00 7.7 3.8 76 21 27   97.37     LegendNANA
14:00 8.2 2.9 69 22 28   97.32     LegendNANA
15:00 9.2 3.1 65 21 26   97.29     LegendNANA
16:00 9.3 3.6 68 21 23   97.28     LegendNANA
17:00 8.4 3.5 71 20 21   97.27     LegendNANA
18:00 6.9 3.9 81 19 17   97.26     LegendNANA
19:00 5.9 3.8 87 18 22   97.27     LegendNANA
20:00 5.2 3.5 89 19 21   97.21     LegendNANA
21:00 4.7 3.1 89 19 21   97.16     LegendNANA
22:00 4.3 2.7 89 19 22   97.12     LegendNANA
23:00 3.9 2.4 91 19 21   97.09     LegendNANA

Notes on Data Quality.

Legend

  • E = Estimated
  • M = Missing
  • NA = Not Available
  • ‡ = Partner data that is not subject to review by the National Climate Archives
Date modified: